weather station
Area: 7197 km2
The highest point: Čupec (819 m.s.l.)
Total stations: 38
Stations online: 37
Stations offline: 1
Current weather
-1°C

Meteorological map - weather stations in Jihomoravský

. The meteorological maps show weather information from WARIO weather stations

Weather stations Jihomoravský

 UpdatesNameStatusTemperatureHumidityWind speedWind direction
18.12.2017 15:48Boskovice-3.9 °C94.8 %1.2 m/s N
18.12.2017 15:48Brno - Jundrov0.2 °C85.0 %1.7 m/s NW
18.12.2017 15:48Brno - Líšeň-0.7 °C47.8 %1.0 m/s NW
18.12.2017 15:48Brno - Vinohrady-0.9 °C82.4 %0.8 m/s NE
25.11.2017 17:08Brno - Komín6.3 °C97.2 %2.6 m/s NW
18.12.2017 15:48Brno0.1 °C74.0 %1.9 m/s W
18.12.2017 15:48Brno-Kníničky-1.4 °C87.3 %0.6 m/s NE
18.12.2017 15:48Býkovice-3.0 °C96.4 %2.2 m/s S
18.12.2017 15:48Bítov-2.0 °C83.6 %0.8 m/s N
18.12.2017 15:48Diváky-0.5 °C76.3 %0.0 m/s W
18.12.2017 15:41Drnholec-0.6 °C81.4 %1.6 m/s NW
18.12.2017 15:48Letonice-1.7 °C89.6 %2.0 m/s NE
18.12.2017 15:48Hodonín0.7 °C88.3 %1.8 m/s NW
18.12.2017 15:47Brno-0.8 °C76.8 %0.8 m/s E
18.12.2017 15:48Moravany-2.0 °C91.8 %2.3 m/s S
18.12.2017 15:48Brno - Chrlice-1.1 °C84.8 %1.2 m/s NE
18.12.2017 15:48Lesní Hluboké -2.6 °C87.9 %0.0 m/s N
18.12.2017 15:48Višňové0.2 °C75.1 %0.0 m/s W
18.12.2017 15:48Vranov-3.1 °C93.0 %0.8 m/s NW
18.12.2017 15:48Dolní Dubňany-1.4 °C87.9 %1.3 m/s NW
18.12.2017 15:48Bzenec0.7 °C82.6 %0.4 m/s N
18.12.2017 15:48Svatobořice-0.8 °C77.6 %2.1 m/s NW
18.12.2017 15:48Moravské Bránice-0.5 °C84.8 %0.7 m/s E
18.12.2017 15:48Pohořelice-0.6 °C82.8 %0.7 m/s W
18.12.2017 15:47Rousínov-1.2 °C85.9 %1.1 m/s S
18.12.2017 15:47Šerkovice-1.1 °C86.7 %1.0 m/s NW
18.12.2017 15:48Brno-střed0.0 °C75.5 %0.0 m/s W
18.12.2017 15:48Kuřim-1.8 °C85.9 %0.6 m/s NW
18.12.2017 15:48Strážnice0.1 °C88.2 %0.0 m/s NE
18.12.2017 15:48Strážnice GUMEX-0.7 °C79.4 %1.8 m/s W
18.12.2017 15:48Němčičky-1.5 °C80.7 %0.0 m/s NW
18.12.2017 15:48Valtice-1.1 °C97.1 %1.5 m/s S
18.12.2017 15:47Veselí nad Moravou LMK109-0.6 °C85.1 %1.7 m/s NW
18.12.2017 15:48Veselí nad Moravou-0.2 °C86.9 %0.0 m/s N
18.12.2017 15:48Lipov-1.6 °C100.0 %0.9 m/s N
18.12.2017 15:48Strachotín-1.1 °C89.9 %1.4 m/s N
18.12.2017 15:48Terezín-0.7 °C92.6 %0.0 m/s W
18.12.2017 15:48Brno - Královo Pole-0.8 °C78.6 %0.0 m/s W
Email notifications
Enter your email address to subscribe to notifications about news at warioweather.com. Your email address will not be used for any purpose other than sending these emails and will not be provided to any third party. The subscription can be ended at any time.
All data are only indicative. The portal administrator has no responsibility for potentially incorrect data and related consequences. Publishing or further sharing of content from www.warioweather.com is only allowed with written consent from WANET s.r.o.